CAPE
0 0 0 0 0 0 0 0 0 0 0 60 1119 1461 2335 2335 2169 1950 2040 2386 2164 2036 1879 1702 1429 2102 1425 1156 1158 906 1146 573
0 0 0 0 0 0 0 0 0 0 0 0 567 1306 1934 1952 2259 2235 2087 2109 2123 1880 1729 1546 1748 1751 1143 1018 730 809 664 579
0 0 0 0 0 0 0 0 0 0 0 0 18 1027 1303 1596 1988 2631 2154 2087 2169 1831 1490 1294 1538 1228 1070 1113 758 436 643 468
0 0 0 0 0 0 0 0 0 0 0 1 0 726 1507 1762 1929 2402 2342 2214 1961 1702 1311 1273 1332 1464 1182 1141 775 492 265 241
0 0 0 0 0 0 0 0 0 0 0 0 6 159 1481 1703 1817 2146 2144 1834 1620 1438 1070 1078 1067 1218 955 1081 810 701 498 246
0 0 0 0 0 0 0 0 0 0 0 0 14 156 1833 1742 1921 1988 1969 1672 1504 1348 929 855 267 792 866 1040 1074 1132 908 382
0 0 0 0 0 0 0 0 0 0 0 11 0 481 1061 1979 1912 1850 1854 1775 1405 1314 1176 1180 809 661 705 589 800 1036 862 619
0 0 0 0 0 0 0 0 0 3 2 79 199 524 880 2249 1940 2074 1651 1972 1433 1370 1312 912 661 633 711 575 649 1124 861 607
0 0 0 0 0 0 0 0 0 57 170 292 498 1015 1388 2413 1999 1944 1644 1631 1789 1739 973 964 409 357 580 656 655 1220 972 926
0 0 0 0 0 0 0 0 0 25 249 697 735 2023 2095 2080 1829 1720 1594 2247 1904 1107 589 413 270 302 625 527 1027 1049 537 290
0 0 0 0 0 0 0 1 2 20 116 725 1107 1455 1586 1586 1678 1784 1193 1701 1210 965 642 636 463 394 602 623 766 436 220 312
0 0 0 0 0 0 0 0 35 49 136 673 1097 1034 1186 1253 1328 1081 1228 969 981 705 506 325 303 404 350 432 409 449 430 174
0 0 0 0 0 0 0 0 61 57 91 97 220 492 599 763 775 608 798 802 643 632 503 175 151 295 388 390 498 305 367 230
0 0 0 0 0 0 0 0 62 97 73 209 501 370 226 299 440 407 557 466 377 212 211 168 134 336 395 156 267 265 271 205
0 0 0 0 0 0 0 0 0 0 42 69 116 284 139 152 137 62 198 100 166 184 221 157 106 68 152 179 130 119 136 150
0 0 0 0 0 0 0 0 2 0 0 0 33 49 2 61 73 108 148 180 154 102 60 105 139 118 96 50 96 65 82 29
0 0 0 0 0 0 0 0 0 0 3 0 0 0 13 15 42 67 86 137 99 140 89 49 43 44 33 38 94 89 33 21
0 0 0 0 0 0 0 0 0 0 2 0 1 0 0 10 0 0 2 98 51 62 49 8 28 46 36 34 12 20 54 18
0 0 0 0 0 0 0 0 0 0 0 0 0 2 2 0 0 0 0 8 0 0 8 58 79 51 5 7 15 17 20 12
CIN
-0 -0 -0 -0 -0 -0 -0 -0 -0 -0 -0 -56 -50 -28 -19 -13 -42 -76 -121 -95 -94 -46 -49 -61 -76 -4 -50 -50 -24 -24 -0 -4
-0 -0 -0 -0 -0 -0 -0 -0 -0 -0 -0 -0 -50 -23 -36 -64 -25 -54 -86 -98 -89 -86 -80 -58 -33 -30 -86 -68 -68 -29 -21 -1
-0 -0 -0 -0 -0 -0 -0 -0 -0 -0 -0 -0 -109 -1 -21 -38 -32 -5 -82 -76 -85 -111 -123 -109 -49 -71 -80 -51 -69 -75 -23 -3
-0 -0 -0 -0 -0 -0 -0 -0 -0 -0 -0 -0 -0 -40 -0 -7 -20 -23 -58 -49 -86 -128 -148 -101 -40 -19 -35 -35 -54 -50 -69 -41
-0 -0 -0 -0 -0 -0 -0 -0 -0 -0 -0 -0 -0 -106 -0 -17 -64 -64 -75 -81 -109 -146 -212 -132 -75 -23 -39 -21 -15 -12 -11 -42
-0 -0 -0 -0 -0 -0 -0 -0 -0 -0 -0 -0 -0 -131 -0 -5 -10 -39 -33 -99 -162 -160 -194 -177 -37 -106 -79 -23 -3 -0 -0 -13
-0 -0 -0 -0 -0 -0 -0 -0 -0 -0 -0 -125 -0 -108 -56 -0 -8 -21 -25 -57 -99 -142 -79 -88 -101 -166 -185 -140 -53 -0 -0 -0
-0 -0 -0 -0 -0 -0 -0 -0 -0 -0 -143 -133 -125 -108 -99 -0 -6 -1 -28 -16 -88 -118 -127 -132 -114 -170 -146 -92 -147 -0 -0 -0
-0 -0 -0 -0 -0 -0 -0 -0 -0 -108 -94 -98 -86 -45 -30 -0 -0 -5 -5 -10 -17 -38 -111 -115 -44 -132 -187 -100 -86 -0 -0 -0
-0 -0 -0 -0 -0 -0 -0 -0 -0 -105 -78 -42 -54 -0 -0 -0 -2 -10 -3 -0 -0 -34 -125 -132 -120 -2 -50 -79 -6 -0 -1 -1
-0 -0 -0 -0 -0 -0 -0 -0 -21 -81 -106 -31 -1 -0 -0 -0 -0 -1 -17 -0 -11 -55 -88 -60 -19 -0 -0 -19 -8 -4 -11 -0
-0 -0 -0 -0 -0 -0 -0 -6 -46 -73 -74 -21 -0 -0 -0 -5 -14 -30 -0 -13 -36 -69 -82 -69 -34 -0 -0 -24 -22 -0 -0 -13
-0 -0 -0 -0 -0 -0 -0 -0 -19 -26 -46 -75 -55 -25 -17 -3 -8 -34 -13 -3 -26 -22 -78 -116 -85 -1 -0 -6 -1 -23 -14 -21
-0 -0 -0 -0 -0 -0 -0 -0 -0 -0 -16 -16 -4 -9 -38 -26 -0 -0 -0 -0 -36 -108 -98 -218 -173 -0 -3 -33 -28 -35 -32 -33
-0 -0 -0 -0 -0 -0 -0 -0 -0 -0 -0 -5 -1 -0 -10 -2 -10 -0 -0 -31 -61 -76 -56 -155 -118 -16 -3 -17 -32 -30 -20 -38
-0 -0 -0 -0 -0 -0 -0 -0 -1 -0 -0 -0 -0 -2 -0 -0 -3 -5 -0 -0 -7 -30 -106 -74 -70 -62 -39 -31 -18 -33 -39 -57
-0 -0 -0 -0 -0 -0 -0 -0 -0 -0 -0 -0 -0 -0 -0 -1 -0 -1 -0 -0 -0 -0 -16 -55 -74 -24 -28 -31 -26 -37 -68 -0
-0 -0 -0 -0 -0 -0 -0 -0 -0 -0 -0 -0 -0 -0 -0 -0 -0 -0 -1 -0 -10 -5 -0 -9 -9 -12 -17 -48 -0 -8 -67 -27
-0 -0 -0 -0 -0 -0 -0 -0 -0 -0 -0 -0 -0 -0 -1 -0 -0 -0 -0 -0 -0 -0 -0 -1 -0 -0 -20 -0 -0 -0 -0 -1
Wind_Speed
nan nan nan nan nan nan nan nan nan nan nan nan 42 45 49 53 56 54 46 42 44 44 45 47 48 45 46 41 34 36 29 26
nan nan nan nan nan nan nan nan nan nan nan nan 49 51 55 57 57 54 53 52 50 48 46 46 45 45 45 42 34 33 29 29
nan nan nan nan nan nan nan nan nan nan nan nan nan 51 54 57 57 59 54 51 49 48 49 44 42 44 39 41 35 32 30 30
nan nan nan nan nan nan nan nan nan nan nan nan nan 44 49 54 57 55 48 46 46 49 46 44 40 43 39 41 38 30 30 31
nan nan nan nan nan nan nan nan nan nan nan nan nan 31 30 34 43 42 43 48 51 53 52 45 41 45 42 42 37 29 28 29
nan nan nan nan nan nan nan nan nan nan nan nan nan 27 27 34 38 38 41 42 47 43 43 60 31 50 40 39 39 26 27 30
nan nan nan nan nan nan nan nan nan nan nan nan nan 22 20 28 28 31 36 40 39 30 33 38 35 45 49 40 41 28 28 25
nan nan nan nan nan nan nan nan nan nan nan nan 20 17 13 18 19 31 35 32 37 30 31 33 35 37 38 40 44 27 23 22
nan nan nan nan nan nan nan nan nan nan 20 23 21 16 19 21 25 31 28 32 33 29 29 25 25 37 47 36 34 23 20 20
nan nan nan nan nan nan nan nan nan nan 22 27 27 12 15 26 26 29 25 25 28 29 27 32 26 11 18 21 20 21 21 20
nan nan nan nan nan nan nan nan nan nan 27 27 29 22 25 27 30 28 27 23 28 34 31 40 22 14 21 18 18 22 21 19
nan nan nan nan nan nan nan nan nan nan 32 36 39 28 27 23 30 33 29 30 30 36 36 36 33 31 28 21 23 19 16 20
nan nan nan nan nan nan nan nan nan nan nan nan 40 37 42 29 28 28 29 30 33 35 37 35 43 31 23 20 18 21 20 21
nan nan nan nan nan nan nan nan nan nan nan 29 37 42 44 37 33 30 30 32 30 32 30 41 46 19 21 21 19 22 21 23
nan nan nan nan nan nan nan nan nan nan nan nan 29 37 43 34 39 nan 37 28 30 31 31 37 37 nan 25 25 22 23 24 23
nan nan nan nan nan nan nan nan nan nan nan nan nan nan nan nan nan 35 46 43 36 39 nan 41 42 38 nan nan nan nan nan nan
nan nan nan nan nan nan nan nan nan nan nan nan nan nan nan nan nan nan nan 54 nan 47 nan nan nan nan nan nan nan nan nan nan
nan nan nan nan nan nan nan nan nan nan nan nan nan nan nan nan nan nan nan nan nan nan nan nan nan nan nan nan nan nan nan nan
nan nan nan nan nan nan nan nan nan nan nan nan nan nan nan nan nan nan nan nan nan nan nan nan nan nan nan nan nan nan nan nan
Wind_Direction
nan nan nan nan nan nan nan nan nan nan nan nan 270 269 271 272 272 274 278 273 281 277 271 272 277 269 270 269 269 269 270 271
nan nan nan nan nan nan nan nan nan nan nan nan 271 274 274 272 270 276 276 273 277 281 269 268 274 267 266 267 264 270 265 270
nan nan nan nan nan nan nan nan nan nan nan nan nan 268 261 261 262 265 269 274 278 274 275 269 269 257 258 263 269 259 259 270
nan nan nan nan nan nan nan nan nan nan nan nan nan 260 261 261 261 264 268 270 267 275 273 266 255 248 246 257 262 268 256 264
nan nan nan nan nan nan nan nan nan nan nan nan nan 251 262 262 265 261 256 266 268 273 269 268 260 246 243 249 251 256 259 266
nan nan nan nan nan nan nan nan nan nan nan nan nan 250 247 251 256 258 253 258 268 272 268 261 248 258 240 250 259 253 259 263
nan nan nan nan nan nan nan nan nan nan nan nan nan 226 227 247 259 258 255 255 257 264 252 265 258 255 254 240 250 252 260 262
nan nan nan nan nan nan nan nan nan nan nan nan 230 209 243 249 253 246 251 243 243 247 273 267 267 268 264 239 250 251 260 265
nan nan nan nan nan nan nan nan nan nan 229 213 201 190 230 233 232 239 240 240 238 251 252 262 259 263 256 246 240 250 264 261
nan nan nan nan nan nan nan nan nan nan 217 204 192 209 237 231 229 243 243 246 225 233 241 237 246 218 216 230 243 262 258 259
nan nan nan nan nan nan nan nan nan nan 213 202 195 228 226 230 230 236 246 241 236 241 254 240 236 225 242 244 256 253 256 256
nan nan nan nan nan nan nan nan nan nan 206 203 205 221 222 240 252 243 240 252 263 251 245 235 249 244 224 230 247 259 263 248
nan nan nan nan nan nan nan nan nan nan nan nan 212 214 216 244 240 245 251 252 255 247 250 254 246 229 230 235 255 254 262 259
nan nan nan nan nan nan nan nan nan nan nan 224 217 214 216 222 218 237 239 252 255 250 249 258 256 234 231 232 251 256 258 260
nan nan nan nan nan nan nan nan nan nan nan nan 223 219 216 220 219 nan 235 237 240 247 256 256 255 nan 234 241 250 249 246 251
nan nan nan nan nan nan nan nan nan nan nan nan nan nan nan nan nan 218 220 225 229 241 nan 248 239 234 nan nan nan nan nan nan
nan nan nan nan nan nan nan nan nan nan nan nan nan nan nan nan nan nan nan 228 nan 233 nan nan nan nan nan nan nan nan nan nan
nan nan nan nan nan nan nan nan nan nan nan nan nan nan nan nan nan nan nan nan nan nan nan nan nan nan nan nan nan nan nan nan
nan nan nan nan nan nan nan nan nan nan nan nan nan nan nan nan nan nan nan nan nan nan nan nan nan nan nan nan nan nan nan nan